Presure
189 181 164 138 197 200 155 183 168 187 167 217 208 199 177 153 149 123 139 158 159 156 196 169 148 137 154 144 136 163 163 140 198 144 177 150 187 152 185 183 159 193 188 170 162
189 193 202 171 191 181 189 171 203 179 198 198 188 229 205 198 169 166 203 137 146 145 171 162 188 147 145 133 148 138 137 133 129 139 143 173 173 195 170 198 185 152 158 157 160
201 193 215 175 170 212 190 213 234 207 212 207 183 194 174 222 201 182 129 181 179 181 146 135 137 165 172 144 137 137 134 145 133 136 133 130 154 143 164 167 174 147 200 140 140
193 202 170 235 238 165 183 228 241 244 219 172 232 200 234 240 189 210 131 190 167 165 149 154 149 169 159 166 145 139 125 132 127 136 152 155 140 133 132 185 136 143 132 119 123
215 198 186 223 207 187 209 197 193 228 245 232 241 250 245 228 215 207 181 195 198 189 190 137 167 160 161 148 188 184 169 131 154 121 125 127 181 177 131 126 133 151 123 131 161
199 202 196 194 223 211 233 222 212 250 179 229 226 261 247 242 194 239 214 219 186 194 180 183 183 138 170 184 185 155 146 184 180 179 165 173 172 130 146 164 133 137 171 133 133
179 216 198 202 316 217 225 235 250 235 235 248 228 243 257 253 230 188 232 262 238 226 203 198 163 199 127 194 149 126 140 166 142 153 126 166 172 179 157 168 126 146 141 155 148
232 206 239 217 239 302 266 345 267 180 224 260 260 224 254 238 218 240 263 226 231 245 217 210 195 210 213 183 183 202 209 175 145 168 162 157 156 173 177 178 156 163 179 174 180
226 213 300 292 165 289 217 266 172 231 330 315 324 249 200 229 208 302 279 255 229 210 215 223 212 229 222 191 204 221 188 162 145 165 156 140 166 131 133 163 174 171 175 174 169
335 230 289 247 254 245 262 242 249 146 246 271 253 284 249 240 194 313 207 208 232 341 343 201 253 234 222 206 221 210 214 200 199 134 189 199 186 133 180 170 146 170 149 171 154
243 245 212 252 154 219 315 317 284 294 279 275 250 244 247 253 284 227 224 179 290 338 333 336 196 208 304 236 263 223 220 209 201 219 145 205 200 192 205 152 184 127 196 182 194
245 236 264 368 350 349 352 365 356 368 381 282 381 301 296 243 255 257 244 230 254 225 268 340 326 214 278 293 286 243 217 216 209 207 224 224 223 150 193 152 193 209 198 197 196
251 305 294 347 343 352 373 365 350 347 344 353 266 367 356 363 281 327 316 258 280 251 258 255 276 303 325 256 291 320 278 225 287 219 191 184 214 176 135 208 220 214 178 224 218
281 351 322 308 348 360 340 339 317 337 364 369 358 341 329 336 344 338 343 333 317 280 295 276 265 239 238 284 300 268 319 308 304 290 225 213 208 199 230 209 211 203 213 220 210
328 300 378 354 331 314 407 312 307 314 328 311 316 350 331 329 327 318 308 330 338 339 282 290 283 268 253 257 226 205 247 318 310 305 223 251 201 218 213 204 220 216 218 219 226
324 348 328 320 309 296 360 317 312 365 364 275 252 278 271 275 302 327 320 311 295 323 328 302 326 324 273 331 323 249 306 310 314 317 234 277 312 313 294 292 295 243 209 269 199
351 323 312 324 291 281 345 339 334 331 342 342 341 344 315 264 329 292 317 319 312 316 310 303 293 314 324 320 318 322 312 301 309 311 314 312 316 282 312 283 252 217 207 279 272
347 329 300 301 280 295 341 325 315 319 324 295 326 387 343 332 340 323 291 311 313 310 311 311 318 312 315 302 311 316 310 311 299 297 310 313 314 313 315 315 304 299 294 291 289
311 336 301 286 267 344 330 317 316 401 386 371 366 365 381 346 324 332 301 290 297 295 296 293 312 305 312 304 303 307 306 312 310 304 302 301 317 318 310 305 305 301 299 200 291
337 343 283 360 274 339 321 310 331 414 390 366 358 356 363 346 313 330 320 297 273 262 286 282 298 303 302 308 298 301 301 314 310 315 319 315 322 326 320 321 324 329 331 335 208
353 299 262 334 350 336 308 311 388 388 398 390 364 381 351 321 343 306 339 305 290 280 276 269 284 307 307 292 299 292 303 309 310 308 303 300 320 311 323 273 332 331 326 337 344
315 293 377 340 345 326 298 314 380 367 373 381 360 357 351 333 326 344 334 311 294 283 276 275 297 305 291 283 293 292 300 303 308 300 299 304 299 331 327 316 362 329 337 333 342
325 347 371 335 334 310 300 390 364 358 347 353 363 355 355 343 332 328 355 320 296 286 281 284 294 277 274 284 283 288 290 306 325 333 318 310 320 319 310 358 344 331 337 324 315
320 342 351 332 326 297 302 373 363 353 345 355 350 361 355 348 357 329 302 355 302 290 286 288 291 275 273 278 286 291 292 297 286 311 316 309 343 369 346 328 325 316 308 301 290
360 334 338 323 315 296 384 367 351 351 323 333 373 355 355 356 347 356 329 324 313 296 292 289 283 273 276 255 261 271 255 315 316 319 320 359 350 339 319 310 302 297 289 285 290
346 329 335 316 306 299 372 356 348 335 349 377 367 315 338 348 359 337 331 321 310 302 299 297 282 287 267 272 300 294 328 319 351 364 358 340 325 320 303 298 288 284 281 277 274
337 321 332 316 297 375 370 351 331 321 370 367 357 360 341 333 325 319 314 312 310 303 301 297 275 268 298 314 314 312 306 362 351 353 329 315 308 298 292 282 276 278 272 275 258
Wind_Speed
61 65 75 71 68 71 65 69 77 75 81 72 76 84 86 74 72 62 67 74 76 73 76 69 62 58 60 53 49 56 56 52 69 43 59 47 62 43 54 51 45 52 46 47 45
67 72 77 69 76 70 75 72 79 76 74 81 79 78 90 89 85 84 81 68 73 68 79 74 78 62 58 55 57 51 53 56 44 46 46 57 55 62 49 57 56 44 46 47 50
79 76 90 71 81 86 73 89 96 82 86 80 80 89 84 83 92 92 70 91 88 89 70 60 59 76 76 59 57 53 58 55 51 50 49 46 51 46 53 52 52 45 57 43 41
78 81 82 96 98 84 73 92 96 96 85 84 91 90 82 86 97 91 72 97 85 85 76 75 70 79 74 77 63 59 58 54 54 53 57 56 51 45 47 65 41 45 43 42 41
104 79 74 100 77 71 86 89 74 84 92 83 88 91 84 84 92 87 96 104 103 98 98 69 84 77 74 66 85 80 78 60 68 52 52 51 68 66 54 40 44 51 47 45 57
89 91 75 77 104 94 106 97 84 99 71 78 79 98 86 76 96 82 97 100 83 105 91 96 94 67 82 87 86 69 68 81 79 77 69 69 70 51 60 60 48 50 58 48 48
76 98 84 82 95 100 105 106 102 97 94 98 77 82 87 85 75 94 84 84 90 97 109 106 86 103 63 95 71 62 66 71 65 64 56 68 72 71 65 67 44 56 56 61 57
107 96 103 105 104 83 83 80 83 81 92 99 100 79 90 75 96 78 97 88 89 82 108 109 102 107 105 89 92 98 96 83 68 75 71 65 67 70 77 74 62 64 69 70 70
111 95 92 88 75 80 80 77 77 79 74 76 74 75 84 75 77 86 78 93 87 106 110 101 112 103 105 91 102 102 93 78 67 73 67 63 75 58 51 67 73 71 73 71 68
88 99 78 84 81 82 77 82 82 56 80 73 79 76 68 78 56 74 95 88 87 68 72 98 94 96 112 109 106 108 107 100 96 62 88 92 87 63 82 73 66 74 61 72 65
83 77 82 82 56 72 69 67 76 74 77 76 79 81 76 77 71 77 75 75 71 68 67 73 93 109 94 104 95 110 110 109 102 102 68 100 95 90 93 65 83 57 87 80 85
82 86 82 69 63 61 60 58 52 55 52 67 53 65 71 71 76 78 82 71 77 89 77 65 73 101 94 92 90 97 107 110 97 95 100 103 100 71 85 72 89 95 90 89 89
83 79 75 63 65 61 61 59 54 53 54 45 56 45 53 53 73 58 62 81 75 77 78 78 76 71 66 84 83 87 94 108 96 82 88 74 96 86 69 95 99 96 78 94 95
83 71 65 64 57 54 52 52 55 49 50 40 43 44 49 49 44 48 45 53 62 75 70 74 77 83 79 74 75 79 82 88 91 90 104 93 86 88 102 94 96 89 93 95 92
78 72 70 60 49 52 39 51 52 51 49 43 39 39 46 51 47 53 54 48 47 50 69 66 69 74 80 77 85 86 76 80 87 86 100 85 74 101 99 93 96 97 95 96 96
76 72 55 55 52 54 39 47 46 31 35 47 39 53 58 61 55 46 49 54 61 49 47 55 47 52 68 46 54 77 76 76 77 78 89 82 83 80 84 87 87 93 89 92 86
76 66 55 53 54 57 36 36 35 36 35 36 35 38 44 59 49 58 51 49 52 50 50 55 55 50 45 44 50 50 64 74 73 74 74 75 75 79 75 82 89 95 88 82 83
73 67 55 52 55 48 32 32 36 39 38 35 39 22 32 38 40 52 58 52 49 48 47 45 42 44 44 52 48 49 58 65 72 72 71 70 68 68 69 71 71 71 73 74 74
70 68 56 55 57 37 33 32 37 20 21 23 26 24 12 26 36 44 56 57 53 50 50 48 39 43 41 46 49 44 50 56 62 68 67 65 64 64 65 64 61 62 64 58 67
68 65 58 47 55 38 34 35 35 16 19 25 24 22 19 26 42 45 57 58 56 57 52 50 41 42 41 41 49 47 52 47 55 56 57 57 55 52 56 53 52 52 50 49 49
65 60 61 49 39 35 35 37 24 18 17 28 25 23 27 30 32 49 50 55 57 57 56 52 42 42 40 44 41 48 42 44 50 51 51 48 45 42 40 49 37 38 38 35 34
64 62 43 44 37 33 35 39 16 15 13 17 24 26 36 42 43 40 46 55 56 57 55 50 40 41 42 47 39 43 43 46 46 43 40 36 36 34 31 30 26 28 28 27 24
62 57 40 39 35 32 35 18 19 18 17 14 23 28 34 42 44 41 32 51 54 55 53 47 41 43 45 43 43 43 44 36 35 34 33 29 31 27 25 21 19 23 21 21 21
60 50 39 36 33 33 36 18 19 20 19 16 21 30 31 37 37 36 35 36 53 54 52 47 41 42 42 40 41 39 37 33 31 27 26 26 25 20 21 22 22 23 22 20 20
49 47 38 36 34 34 20 16 17 19 15 16 21 25 29 28 25 36 35 38 49 52 52 46 37 39 40 30 31 30 21 27 24 21 23 24 24 20 24 26 26 24 21 18 17
46 43 37 35 34 36 17 15 15 17 18 14 15 19 19 17 23 27 30 34 44 49 48 42 34 32 39 35 27 31 25 22 19 19 25 25 25 26 29 28 25 22 18 17 16
43 43 36 33 34 20 15 11 14 14 10 11 12 17 24 25 26 26 28 33 38 41 39 36 32 33 24 24 26 22 17 17 21 27 28 28 29 30 29 26 22 19 17 17 15
Wind_Direction
288 282 272 281 281 281 276 276 267 262 262 272 256 250 252 253 254 257 253 251 251 251 254 253 248 248 249 245 241 246 246 244 252 246 254 245 256 245 258 255 249 257 252 251 252
291 292 291 273 286 276 280 273 278 269 267 268 263 266 248 247 252 251 246 253 252 250 248 249 248 249 247 246 245 240 240 242 240 241 242 252 248 255 252 257 255 246 249 247 253
294 290 291 275 275 286 273 284 283 271 277 273 256 260 259 252 244 247 258 249 250 250 249 249 247 247 243 247 245 241 241 243 241 240 240 241 249 245 249 248 249 246 255 245 244
296 294 281 294 291 269 270 286 282 277 274 272 275 253 267 265 252 243 255 248 250 250 251 250 249 246 247 246 248 246 249 245 247 244 247 248 246 238 246 256 243 247 241 234 238
296 297 281 299 296 275 284 285 269 284 278 277 275 273 267 258 250 246 255 251 248 246 248 252 249 249 247 245 247 244 246 250 247 251 250 247 252 253 246 240 242 248 237 245 251
297 301 293 296 297 290 292 290 282 279 259 275 268 274 271 267 251 257 249 245 251 250 245 247 249 249 249 249 248 245 247 245 246 245 247 248 250 246 251 249 242 245 253 245 246
288 301 292 299 294 295 290 284 277 280 279 280 269 274 272 270 253 256 250 258 246 245 246 248 251 250 253 248 246 253 249 247 244 245 256 248 249 248 250 251 251 247 249 252 251
297 309 302 300 290 287 283 280 278 263 275 273 269 259 271 262 251 254 261 251 246 250 242 246 253 247 248 250 252 250 248 247 245 248 248 248 249 249 252 252 252 250 253 251 253
304 298 294 294 277 290 284 284 269 274 273 270 269 270 252 260 263 260 252 249 246 249 245 251 246 242 243 250 250 243 252 249 247 246 245 246 249 249 251 251 254 254 254 253 254
300 297 299 291 290 286 282 284 277 280 276 268 268 267 261 260 262 257 245 253 248 252 246 252 249 249 244 251 243 249 245 253 252 251 250 253 251 253 252 253 254 254 249 257 254
299 295 289 293 272 289 283 279 275 272 271 267 272 271 269 263 256 249 249 255 254 254 249 245 249 252 247 243 249 246 246 252 254 246 248 249 251 255 251 250 256 255 255 258 256
301 300 302 308 305 299 294 293 285 285 279 265 266 260 259 256 259 259 258 259 257 248 247 251 244 246 247 248 247 251 247 250 246 249 245 247 247 247 255 250 257 254 257 258 259
309 310 306 310 299 298 295 289 281 279 277 274 277 266 264 260 255 253 249 256 251 251 251 250 250 247 244 249 247 248 246 247 249 243 251 249 249 249 246 254 251 253 251 255 257
315 317 309 301 306 302 292 288 280 277 279 274 264 260 253 257 250 253 250 250 249 248 247 247 248 250 253 249 246 251 247 247 248 247 248 253 251 256 253 257 257 262 260 257 260
319 314 318 316 301 295 308 281 279 277 273 264 260 256 253 251 246 246 244 248 247 247 248 246 245 244 250 253 250 248 248 247 248 249 251 252 254 254 259 260 254 260 261 261 262
320 322 318 314 303 294 306 292 287 295 290 270 264 254 255 255 249 244 245 242 245 244 244 246 246 247 244 246 241 246 246 248 249 250 248 251 251 248 248 251 253 258 263 259 262
321 324 317 318 302 302 305 302 300 293 284 278 266 258 252 258 244 246 239 238 239 239 239 239 240 243 244 243 243 243 244 248 249 250 251 251 254 253 251 251 256 262 264 260 262
321 325 315 314 306 307 302 299 293 288 282 275 270 269 250 240 236 233 243 235 234 236 237 238 240 242 241 238 243 245 246 248 249 250 252 254 255 256 257 256 253 255 256 257 258
323 324 317 311 311 306 304 300 295 277 259 232 250 254 235 229 229 230 234 238 235 239 238 238 237 243 240 235 239 242 245 247 248 251 253 256 258 260 260 260 260 257 256 250 258
323 324 314 317 314 308 305 302 305 243 236 243 251 242 208 194 224 224 222 234 242 244 239 239 235 238 239 240 239 243 246 250 250 252 255 257 259 259 262 263 262 260 259 258 253
323 321 315 319 312 309 309 309 296 274 232 214 235 202 188 204 219 228 225 228 233 238 240 243 239 242 239 236 241 244 250 252 253 255 259 262 263 262 261 254 253 249 249 248 244
325 322 318 318 313 311 310 314 289 277 256 216 217 215 198 207 220 221 221 222 227 234 238 239 234 238 228 235 241 245 250 252 255 258 259 261 263 260 253 245 237 241 230 230 224
326 325 319 317 313 311 310 276 281 267 268 247 218 222 206 212 223 224 216 219 226 232 236 236 234 226 235 234 239 245 252 256 255 256 257 257 248 246 239 214 208 209 201 201 208
326 325 319 317 311 308 308 276 270 264 273 249 241 224 220 220 218 227 228 214 223 228 233 234 232 229 233 236 243 246 252 255 256 259 253 244 230 209 199 188 184 181 190 197 213
325 325 319 317 311 309 283 264 269 265 273 267 231 232 229 228 221 205 216 216 220 225 231 232 227 228 232 240 246 254 238 255 254 252 236 213 196 180 174 171 177 182 191 199 204
323 323 317 315 311 309 263 255 256 273 271 238 219 237 215 207 189 185 201 212 219 225 228 230 224 230 233 239 241 244 253 248 233 206 195 179 170 165 167 170 176 181 186 195 205
321 321 316 314 310 285 248 232 259 274 231 195 185 180 159 165 173 189 201 211 221 225 229 229 218 223 240 240 242 243 236 210 193 173 175 164 163 162 164 170 176 174 181 191 188